Погода Ирбейское

Погода Ирбейское : погода сейчас, прогноз погоды и архив. Всё, что Вы хотите узнать о погоде Ирбейское!

Поиск расширенной информации на нашем сайте:

Другие новости

Новости СМИ2

Главная страница сайта

Новости сайта

03.07.2017

Напоминаем, что на нашем специализированном сайте Метеоцентр.Азия вы можете получить высокодетализированные автоматические прогнозы погоды по пунктам России, СНГ и мира в авиационном формате (включающие направление и скорость ветра, видимость, явления погоды, количество и форму облачности, нижнюю и верхнюю границу облачности).

Рекомендуем: купить подарок мужу в Екатеринбурге

Погода Ирбейское - сегодня

Время (UTC), дата Ветер
(°,м/с) 
Видим.   Явления Облачность Т
(°С)
Тd
(°С)
f(%) Тe
(°С)
Pmin
(гПа)
dP
(гПа)
Po
(мм)
O2
(г/м3)
Тmin Tmax R s Состояние
почвы
03 23.07.17 070 (В) 20000 м    8/8 600 м кучево-дожд. 
[Cb cap]
+21 +15.4 70 +31  1012.4  -0.6  738  273           
06 23.07.17 050 (СВ) 20000 м    8/8 600 м кучево-дожд. 
[Cb cap]
+24.3 +16 60 +35  1011.1  -0.9  737  269           
09 23.07.17 060 (СВ) 20000 м    6/4 600 м кучево-дожд., средняя, верхняя 
[Cb cap|Ac trans|Ci fib]
+25 +15.5 56 +35  1010.2  -0.8  736  269           
12 23.07.17 070 (В) 20000 м    6/4 600 м кучево-дожд., средняя, верхняя 
[Cb cap|Ac lent|Ci sp]
+24.4 +14.3 53 +32  1009.4  -0.9  736  269    +25.5       
15 23.07.17 290 (З) 20000 м    4/3 600 м кучево-дожд., средняя 
[Cb cap|Ac lent]
+15.1 +12.8 86 +22  1010.8  0.5  736  278           
18 23.07.17 тихо ()   н/о    ясно 
+12.6 +12.2 97 +17  1010.1  -1  735  281           
21 23.07.17 тихо ()   20000 м    4/4 1000 м 
[Sc]
+11.9 +11.6 98 +16  1009.8  -0.4  735  281           
00 24.07.17 250 (З) 20000 м    8/3 1000 м средняя, верхняя 
[Sc|Ac lent|Ci sp]
+14.1 +13.6 97 +22  1010.2  0.7  735  279  +11.5        сухая 
03 24.07.17 140 (ЮВ) 20000 м    8/3 1000 м средняя, верхняя 
[Sc|Ac lent|Ci sp]
+22.4 +14.7 62 +31  1008.7  -0.6  735  271           
06 24.07.17 170 (Ю) 20000 м  гроза без осадков  8/8 600 м кучево-дожд. 
[Cb cap]
+24 +15.8 60 +35  1007.7  -0.8  734  269           
09 24.07.17 тихо () {10}  4000 м  гроза, ливневой дождь  10/10 600 м кучево-дожд. 
[Cb cap]
+16.9 +16.2 96 +28  1009.8  0.8  735  275           
12 24.07.17 тихо ()   20000 м  {гроза, ливн. осадки}  9/8 600 м кучево-дожд., средняя 
[Cb cap|Ac lent]
+17.4 +15 86 +27  1009.6  0.4  735  275    +26     
15 24.07.17 тихо ()   10 км  местами туман поземный  9/8 600 м кучево-дожд., средняя 
[Cb cap|Ac lent]
+14.2 +13.8 97 +21  1010.1  0.1  735  279           
18 24.07.17 тихо ()   н/о  туман  6/6 600 м кучево-дожд. 
[Cb cap]
+12.4 +12.1 98 +17  1010.1  -0.2  735  281           
21 24.07.17 тихо ()   0500 м  туман  8/4 600 м кучево-дожд., средняя, верхняя 
[Cb cap|Ac lent|Ci sp]
+10.9 +10.7 99 +13  1009.9  -0.4  735  283           
00 25.07.17 тихо ()   0200 м  туман  ?/?  
+12.7 +12.5 99 +18  1009.5  -0.2  735  280  +10.7        влажная 
03 25.07.17 100 (В) 20000 м  {туман}  8/6 300 м верхняя 
[St|Ci fib]
+18.7 +15.7 83 +30  1008.5  -0.3  735  274           
06 25.07.17 110 (В) 20000 м  {туман}  6/4 600 м средняя, верхняя 
[Cu med, cong|Ac trans|Ci fib]
+24.8 +15.2 55 +34  1006.5  -1.4  734  268           
09 25.07.17 130 (ЮВ) 20000 м    9/6 600 м кучево-дожд., средняя, верхняя 
[Cb cap|Ac trans|Ci sp]
+26 +15.9 54 +37  1005.2  -1.1  733  266           
12 25.07.17 130 (ЮВ) 20000 м    9/4 600 м кучево-дожд., средняя, верхняя 
[Cb cap|Ac trans|Ci sp]
+24.7 +15.7 57 +35  1004.4  -0.9  732  267    +26.9       
15 25.07.17 тихо ()   10 км    9/6 600 м кучево-дожд., средняя 
[Cb cap|Ac lent]
+17.6 +16.9 96 +31  1004.7  -0.4  732  273           
18 25.07.17 тихо ()   н/о  местами туман поземный  3/3 1000 м 
[Sc]
+14 +13.7 98 +21  1004.2  -0.9  731  277           
21 25.07.17 тихо ()   10 км  местами туман поземный  3/3 1000 м 
[Sc]
+11.7 +11.5 99 +15  1003.9  -0.5  731  280           
00 26.07.17 220 (ЮЗ) 4000 м  дымка{туман}  4/3 1000 м средняя, верхняя 
[Sc|Ac lent|Ci sp]
+14.7 +14.5 99 +24  1004  0.4  731  276  +11.2        сухая 
03 26.07.17 270 (З) 20000 м    6/3 600 м кучево-дожд., средняя, верхняя 
[Cb cap|Ac lent|Ci sp]
+22.7 +15.5 64 +33  1002.8  -0.3  731  269           
Время (UTC), дата Ветер
(°,м/с) 
Видим.   Явления Облачность Т
(°С)
Тd
(°С)
f(%) Тe
(°С)
Pmin
(гПа)
dP
(гПа)
Po
(мм)
O2
(г/м3)
Тmin Tmax R s Состояние
почвы

Для получения пояснительной информации подведите курсор к названию столбца.

ПОГОДА Ирбейское - архив

Всё, что Вы хотите узнать о погоде Ирбейское - удобно и подробно!

Выберите нужную дату (начиная с 1 января 2015* года) и нажмите кнопку "Найти".
Будут отображены архивные сводки погоды по пункту Ирбейское, начиная с указанной даты.


Отображать данные в формате CSV (для использования в таблицах Excel)


Внимание! Наш архив погоды предназначен исключительно для личного некоммерческого использования в познавательных целях. Если Вам необходимы официальные справки о состоянии погоды (для производственных, юридических, коммерческих и т.п. целей), обращайтесь в органы Росгидромета.

*Примечание: данная дата относится к архиву по метеостанциям СССР (Россия, СНГ, Балтия).
Архив по метеостанциям Зарубежной Европы и Азии (кроме Китая) хранится 10 дней, по другим регионам земного шара (Китай, Африка, Америка, Австралия, Океания) - 1 день.

Ирбейское - район местоположения метеостанции


Название, широта, долгота, высота метеостанции:
Ирбейское 55.6°ш. 95.5°д. 252 м над ур. моря [Российская Федерация]

Дополнительная информация

В oтличие oт бoльшинства пoгoдных сайтoв мы публикуем пoдрoбную метеoинфoрмацию в детальнoм прoфессиoнальнoм фoрмате.

Характеристики температуры и влажнoсти вoздуха измеряются на высoте 2 м в тени вдали oт зданий и деревьев.
Скoрoсть ветра измеряется на высoте 10 м (на урoвне рoста челoвека скoрoсть ветра ниже в 1.5-2 раза). Если метеoстанция нахoдится в гoрoде или в лесу, тo скoрoсть ветра занижена на 2-4 м/с пo сравнению с oткрытым местoм. Скoрoсть ветра над акватoриями крупных рек и oзёр, а также на вершинах хoлмoв на 2-5 м/с выше, чем в oбычных услoвиях.
Атмoсфернoе давление в разных тoчках местнoсти мoжет значительнo oтличаться oт давления на метеoстанции, в зависимoсти oт услoвий рельефа (при пoдъёме на 10 м давление пoнижается примернo на 1 мм рт.ст.).